This is the latest recevied weather packets stored in our database for station/object KC6OYN. If no packets are shown the sender has not sent any weather packets the latest 1 day(s).
| Time | Temp. | Humidity | Pressure | Rain* | Wind** | Luminosity | Snow |
|---|---|---|---|---|---|---|---|
| 1778085991 | 15.56° C | 69% | 1027.8 hPa | 0 mm | - | - | - |
| 1778085750 | 15.56° C | 69% | 1027.9 hPa | 0 mm | - | - | - |
| 1778084545 | 14.44° C | 70% | 1027.8 hPa | 0 mm | - | - | - |
| 1778083100 | 13.89° C | 74% | 1027.9 hPa | 0 mm | - | - | - |
| 1778082859 | 13.33° C | 74% | 1027.9 hPa | 0 mm | - | - | - |
| 1778082618 | 13.33° C | 75% | 1028 hPa | 0 mm | - | - | - |
| 1778082377 | 12.78° C | 75% | 1027.9 hPa | 0 mm | - | - | - |
| 1778079486 | 11.67° C | 79% | 1027.7 hPa | 0 mm | - | - | - |
| 1778079245 | 11.67° C | 78% | 1027.6 hPa | 0 mm | - | - | - |
| 1778079004 | 11.67° C | 79% | 1027.6 hPa | 0 mm | - | - | - |
| 1778078763 | 11.67° C | 80% | 1027.8 hPa | 0 mm | - | - | - |
| 1778078522 | 11.11° C | 80% | 1027.6 hPa | 0 mm | - | - | - |
| 1778076354 | 9.44° C | 85% | 1027.7 hPa | 0 mm | - | - | - |
| 1778076113 | 9.44° C | 85% | 1027.5 hPa | 0 mm | - | - | - |
| 1778075872 | 8.89° C | 86% | 1027.5 hPa | 0 mm | - | - | - |
| 1778075631 | 8.89° C | 86% | 1027.5 hPa | 0 mm | - | - | - |
| 1778073464 | 7.22° C | 86% | 1027.3 hPa | 0 mm | - | - | - |
| 1778072499 | 7.22° C | 86% | 1027.2 hPa | 0 mm | - | - | - |
| 1778072258 | 7.22° C | 86% | 1027.1 hPa | 0 mm | - | - | - |
| 1778072017 | 7.22° C | 86% | 1027 hPa | 0 mm | - | - | - |
| 1778071294 | 7.22° C | 86% | 1027 hPa | 0 mm | - | - | - |
| 1778069367 | 7.22° C | 85% | 1026.9 hPa | 0 mm | - | - | - |
| 1778068885 | 7.22° C | 85% | 1027 hPa | 0 mm | - | - | - |
| 1778068162 | 7.22° C | 85% | 1026.9 hPa | 0 mm | - | - | - |
| 1778066236 | 7.22° C | 85% | 1026.9 hPa | 0 mm | - | - | - |
* Rain since midnight (hover to see other rain measurements)
** Current wind speed in m/s (hover to see current wind gust speed)